Погода в Кудымкаре

Погода в Кудымкаре : погода сейчас, прогноз погоды и архив. Всё, что Вы хотите узнать о погоде в Кудымкаре!

Хотите узнать прогноз погоды в Кудымкаре? Тогда Вам сюда: Погода в Кудымкаре

Поиск расширенной информации на нашем сайте:

Полезная информация: Роспись эбру турция. Турецкая керамика турция ebrussia.com.

Другие новости

Новости СМИ2

Главная страница сайта

Новости сайта

03.07.2017

Напоминаем, что на нашем специализированном сайте Метеоцентр.Азия вы можете получить высокодетализированные автоматические прогнозы погоды по пунктам России, СНГ и мира в авиационном формате (включающие направление и скорость ветра, видимость, явления погоды, количество и форму облачности, нижнюю и верхнюю границу облачности).

Рекомендуем: Все страницы Hypernova.ru/sitemap

Погода в Кудымкаре - сегодня

Время (UTC), дата Ветер
(°,м/с) 
Видим.   Явления Облачность Т
(°С)
Тd
(°С)
f(%) Тe
(°С)
Pmin
(гПа)
dP
(гПа)
Po
(мм)
O2
(г/м3)
Тmin Tmax R s Состояние
почвы
03 19.07.17 150 (ЮВ) 10 км  слаб. дождь  9/8 300 м верхняя 
[Sc|Ci fib]
+18 +16.3 90 +30  1011.6  0.2  742  277  +16.2      мокрая 
06 19.07.17 190 (Ю) 10 км  в посл. час дождь  10/10 300 м 
[Frnb|Ns]
+17.6 +17.2 98 +32  1012.3  0.7  743  277           
09 19.07.17 230 (ЮЗ) 20000 м  {дождь}  10/10 300 м 
[Sc]
+18.2 +16.3 89 +30  1012.9  0.6  743  277           
12 19.07.17 280 (З) 20000 м  в посл. час дождь  9/9 300 м 
[Sc]
+18.4 +15.6 84 +29  1013.3  0.4  744  277           
18 19.07.17 тихо ()   4000 м  дымка  8/1 600 м средняя, верхняя 
[Sc|Ac trans|Cs]
+14.8 +14.3 97 +22  1014.3  0.4  744  281           
21 19.07.17 170 (Ю) 1000 м  дымка  3/1 600 м верхняя 
[Sc|Cs]
+12.8 +12.6 99 +19  1014.3  -0.2  744  284           
00 20.07.17 тихо ()   0200 м  туман  ясно 
+11.4 +11.2 99 +14  1014.6  0.2  744  286           
03 20.07.17 тихо ()   20000 м  {туман}  3/1 600 м верхняя 
[Sc|Cs]
+16.4 +15.7 96 +27  1014.5  0.3  744  280  +11.1        мокрая 
06 20.07.17 220 (ЮЗ) 20000 м  {туман}  4/4 600 м 
[Cu med, cong]
+23.1 +15 60 +32  1013.9  744  273           
09 20.07.17 220 (ЮЗ) 20000 м    5/5 600 м 
[Cu med, cong]
+24.5 +13.5 50 +31  1013.5  -0.4  744  273           
12 20.07.17 320 (СЗ) 20000 м    4/4 600 м 
[Cu med, cong]
+25.2 +10.7 40 +27  1012.8  -0.7  744  272           
18 20.07.17 040 (СВ) 1{10}  20000 м  {гроза, ливн. осадки}  8/8 600 м кучево-дожд. 
[Cb cap]
+15.4 +14.8 96 +26  1014.3  0.4  744  281           
21 20.07.17 тихо ()   20000 м    8/8 600 м 
[Sc]
+14.2 +14 99 +21  1014.7  0.2  744  282           
00 21.07.17 тихо ()   20000 м    8/6 600 м средняя 
[Sc|Ac trans]
+13.4 +13.2 99 +19  1014.8  0.1  745  283           
03 21.07.17 040 (СВ) 20000 м    8/8 1000 м 
[Sc]
+16.2 +15.2 94 +27  1015.3  0.7  745  280  +13.3      мокрая 
06 21.07.17 110 (В) 20000 м    8/5 2000 м средняя, верхняя 
[Ac cast|Cc]
+22.4 +15.6 65 +32  1014.6  -0.2  745  274           
09 21.07.17 070 (В) 20000 м  гроза без осадков  8/6 600 м кучево-дожд., средняя, верхняя 
[Cb calv|Ac cast|Ci fib]
+25.1 +15.4 55 +35  1012.8  -1.6  744  271           
12 21.07.17 250 (З) 4000 м  гроза, ливневой дождь  10/8 300 м кучево-дожд., средняя 
[Cb cap|As op]
+18.1 +17.1 94 +33  1013.3  0.1  744  277           
18 21.07.17 090 (В) 20000 м  в посл. час гроза{ливн. осадки}  10/10 300 м кучево-дожд. 
[Cb cap]
+13.9 +13.6 98 +21  1011.8  -1.6  742  282           
21 21.07.17 250 (З) 20000 м  {ливн. осадки}  8/5 300 м кучево-дожд., средняя 
[Cb cap|Ac cast]
+13.1 +12.8 98 +19  1010.8  -1  742  283           
00 22.07.17 210 (ЮЗ) 0500 м  туман{ливн. осадки}  ?/?  
+13.3 +13.2 99 +21  1010.4  -0.5  741  282           
03 22.07.17 260 (З) 0500 м  туман  ?/?  
+13.5 +13.4 99 +20  1009.8  -0.5  741  282  +12.9      мокрая 
06 22.07.17 360 (С) 20000 м  {туман}  10/10 300 м 
[Frnb|Ns]
+14.9 +13.5 91 +22  1009.3  -0.4  741  280           
09 22.07.17 020 (С) 20000 м    9/9 300 м 
[Sc diur, vesp]
+17.2 +13.1 77 +25  1008.9  -0.2  740  278           
12 22.07.17 220 (ЮЗ) 20000 м    10/6 300 м средняя 
[Sc diur, vesp|Ac As]
+17 +14.9 87 +27  1008.3  -0.6  740  278           
Время (UTC), дата Ветер
(°,м/с) 
Видим.   Явления Облачность Т
(°С)
Тd
(°С)
f(%) Тe
(°С)
Pmin
(гПа)
dP
(гПа)
Po
(мм)
O2
(г/м3)
Тmin Tmax R s Состояние
почвы

Для получения пояснительной информации подведите курсор к названию столбца.

ПОГОДА в Кудымкаре - архив

Всё, что Вы хотите узнать о погоде в Кудымкаре - удобно и подробно!

Выберите нужную дату (начиная с 1 января 2015* года) и нажмите кнопку "Найти".
Будут отображены архивные сводки погоды по пункту Кудымкар, начиная с указанной даты.


Отображать данные в формате CSV (для использования в таблицах Excel)


Внимание! Наш архив погоды предназначен исключительно для личного некоммерческого использования в познавательных целях. Если Вам необходимы официальные справки о состоянии погоды (для производственных, юридических, коммерческих и т.п. целей), обращайтесь в органы Росгидромета.

*Примечание: данная дата относится к архиву по метеостанциям СССР (Россия, СНГ, Балтия).
Архив по метеостанциям Зарубежной Европы и Азии (кроме Китая) хранится 10 дней, по другим регионам земного шара (Китай, Африка, Америка, Австралия, Океания) - 1 день.

Кудымкар - район местоположения метеостанции


Название, широта, долгота, высота метеостанции:
Кудымкар 59°ш. 54.6°д. 186 м над ур. моря [Российская Федерация]

Дополнительная информация

В oтличие oт бoльшинства пoгoдных сайтoв мы публикуем пoдрoбную метеoинфoрмацию в детальнoм прoфессиoнальнoм фoрмате.

Характеристики температуры и влажнoсти вoздуха измеряются на высoте 2 м в тени вдали oт зданий и деревьев.
Скoрoсть ветра измеряется на высoте 10 м (на урoвне рoста челoвека скoрoсть ветра ниже в 1.5-2 раза). Если метеoстанция нахoдится в гoрoде или в лесу, тo скoрoсть ветра занижена на 2-4 м/с пo сравнению с oткрытым местoм. Скoрoсть ветра над акватoриями крупных рек и oзёр, а также на вершинах хoлмoв на 2-5 м/с выше, чем в oбычных услoвиях.
Атмoсфернoе давление в разных тoчках местнoсти мoжет значительнo oтличаться oт давления на метеoстанции, в зависимoсти oт услoвий рельефа (при пoдъёме на 10 м давление пoнижается примернo на 1 мм рт.ст.).